Time,TemperatureF,DewpointF,PressureIn,WindDirection,WindDirectionDegrees,WindSpeedMPH,WindSpeedGustMPH,Humidity,HourlyPrecipIn,Conditions,Clouds,dailyrainin,SoftwareType,DateUTC
2013-01-17 07:31:00,24.8,11.7,30.08,South,180,0.0,1.1,57,0.00,CLR,,0.00,WeatherDisplay:10.37,2013-01-17 15:31:00,
2013-01-17 07:32:00,24.8,11.7,30.08,South,180,0.0,1.1,57,0.00,CLR,,0.00,WeatherDisplay:10.37,2013-01-17 15:32:00,
2013-01-17 07:37:00,24.4,11.4,30.08,South,180,0.0,0.0,57,0.00,CLR,,0.00,WeatherDisplay:10.37,2013-01-17 15:37:00,
2013-01-17 07:42:00,24.4,11.4,30.08,WNW,292,0.0,0.0,57,0.00,CLR,,0.00,WeatherDisplay:10.37,2013-01-17 15:42:00,
2013-01-17 07:47:00,24.6,11.5,30.08,NW,315,0.0,0.0,57,0.00,CLR,,0.00,WeatherDisplay:10.37,2013-01-17 15:47:00,
2013-01-17 07:52:00,24.1,11.0,30.08,NW,315,0.0,0.0,57,0.00,CLR,,0.00,WeatherDisplay:10.37,2013-01-17 15:52:00,
2013-01-17 07:57:00,23.9,11.3,30.08,ENE,68,0.0,0.0,58,0.00,CLR,,0.00,WeatherDisplay:10.37,2013-01-17 15:57:00,
2013-01-17 08:02:00,23.7,11.1,30.08,ESE,112,0.0,0.0,58,0.00,CLR,,0.00,WeatherDisplay:10.37,2013-01-17 16:02:00,
2013-01-17 08:03:00,23.7,11.1,30.08,ESE,112,0.0,0.0,58,0.00,CLR,,0.00,WeatherDisplay:10.37,2013-01-17 16:03:00,
2013-01-17 08:07:00,23.7,11.1,30.09,ENE,68,0.0,0.0,58,0.00,CLR,,0.00,WeatherDisplay:10.37,2013-01-17 16:07:00,
2013-01-17 08:08:00,23.7,11.1,30.09,ENE,68,0.0,0.0,58,0.00,CLR,,0.00,WeatherDisplay:10.37,2013-01-17 16:08:00,
2013-01-17 08:13:00,23.7,11.1,30.09,South,180,0.0,0.0,58,0.00,CLR,,0.00,WeatherDisplay:10.37,2013-01-17 16:13:00,
2013-01-17 08:18:00,24.3,12.0,30.09,NNW,338,0.0,0.0,59,0.00,CLR,,0.00,WeatherDisplay:10.37,2013-01-17 16:18:00,
2013-01-17 08:23:00,24.4,12.1,30.09,NE,45,0.0,0.0,59,0.00,CLR,,0.00,WeatherDisplay:10.37,2013-01-17 16:23:00,
2013-01-17 08:24:00,24.4,12.1,30.09,NNE,22,0.0,0.0,59,0.00,CLR,,0.00,WeatherDisplay:10.37,2013-01-17 16:24:00,
2013-01-17 08:28:00,24.6,12.3,30.09,NW,315,0.0,0.0,59,0.00,CLR,,0.00,WeatherDisplay:10.37,2013-01-17 16:28:00,
2013-01-17 08:29:00,24.6,12.3,30.09,NW,315,0.0,0.0,59,0.00,CLR,,0.00,WeatherDisplay:10.37,2013-01-17 16:29:00,
2013-01-17 08:33:00,25.0,13.0,30.09,ENE,68,0.0,0.0,60,0.00,CLR,,0.00,WeatherDisplay:10.37,2013-01-17 16:33:00,
2013-01-17 08:34:00,25.3,13.8,30.09,SW,225,0.0,0.0,61,0.00,CLR,,0.00,WeatherDisplay:10.37,2013-01-17 16:34:00,
2013-01-17 08:38:00,26.2,15.3,30.09,West,270,0.0,0.0,63,0.00,CLR,,0.00,WeatherDisplay:10.37,2013-01-17 16:38:00,
2013-01-17 08:39:00,26.2,15.3,30.09,West,270,0.0,0.0,63,0.00,CLR,,0.00,WeatherDisplay:10.37,2013-01-17 16:39:00,
2013-01-17 08:43:00,27.0,15.7,30.10,NNW,338,0.0,0.0,62,0.00,CLR,,0.00,WeatherDisplay:10.37,2013-01-17 16:43:00,
2013-01-17 08:44:00,27.0,15.7,30.10,NNW,338,0.0,0.0,62,0.00,CLR,,0.00,WeatherDisplay:10.37,2013-01-17 16:44:00,
2013-01-17 08:48:00,27.0,15.3,30.10,NW,315,0.0,0.0,61,0.00,CLR,,0.00,WeatherDisplay:10.37,2013-01-17 16:48:00,
2013-01-17 08:49:00,27.0,15.3,30.10,NW,315,0.0,0.0,61,0.00,CLR,,0.00,WeatherDisplay:10.37,2013-01-17 16:49:00,
2013-01-17 08:53:00,28.9,17.2,30.10,NNW,338,0.0,0.0,61,0.00,CLR,,0.00,WeatherDisplay:10.37,2013-01-17 16:53:00,
2013-01-17 08:54:00,28.9,17.2,30.10,NNW,338,0.0,0.0,61,0.00,CLR,,0.00,WeatherDisplay:10.37,2013-01-17 16:54:00,
2013-01-17 08:59:00,29.3,17.1,30.10,WSW,248,0.0,0.0,60,0.00,CLR,,0.00,WeatherDisplay:10.37,2013-01-17 16:59:00,
2013-01-17 09:04:00,30.0,17.4,30.10,NW,315,0.0,0.0,59,0.00,CLR,,0.00,WeatherDisplay:10.37,2013-01-17 17:04:00,
2013-01-17 09:09:00,31.8,18.7,30.10,WNW,292,0.2,1.1,58,0.00,CLR,,0.00,WeatherDisplay:10.37,2013-01-17 17:09:00,
2013-01-17 09:14:00,33.4,19.4,30.10,NW,315,1.5,2.6,56,0.00,CLR,,0.00,WeatherDisplay:10.37,2013-01-17 17:14:00,
2013-01-17 09:15:00,34.2,19.7,30.10,West,270,2.0,2.3,55,0.00,CLR,,0.00,WeatherDisplay:10.37,2013-01-17 17:15:00,
2013-01-17 09:19:00,34.7,20.2,30.10,West,270,2.0,2.3,55,0.00,CLR,,0.00,WeatherDisplay:10.37,2013-01-17 17:19:00,
2013-01-17 09:20:00,34.7,20.2,30.10,West,270,2.0,2.3,55,0.00,CLR,,0.00,WeatherDisplay:10.37,2013-01-17 17:20:00,
2013-01-17 09:24:00,35.4,20.0,30.11,West,270,2.0,3.5,53,0.00,CLR,,0.00,WeatherDisplay:10.37,2013-01-17 17:24:00,
2013-01-17 09:25:00,35.4,20.0,30.11,West,270,2.0,3.6,53,0.00,CLR,,0.00,WeatherDisplay:10.37,2013-01-17 17:25:00,
2013-01-17 09:26:00,36.0,20.0,30.11,WSW,248,2.0,3.5,52,0.00,CLR,,0.00,WeatherDisplay:10.37,2013-01-17 17:26:00,
2013-01-17 09:29:00,36.7,20.2,30.11,West,270,2.0,4.6,51,0.00,CLR,,0.00,WeatherDisplay:10.37,2013-01-17 17:29:00,
2013-01-17 09:30:00,36.7,20.2,30.11,West,270,2.0,4.6,51,0.00,CLR,,0.00,WeatherDisplay:10.37,2013-01-17 17:30:00,
2013-01-17 09:31:00,36.7,20.2,30.11,West,270,2.0,4.6,51,0.00,CLR,,0.00,WeatherDisplay:10.37,2013-01-17 17:31:00,
2013-01-17 09:34:00,37.4,19.5,30.11,WNW,292,2.5,4.6,48,0.00,CLR,,0.00,WeatherDisplay:10.37,2013-01-17 17:34:00,
2013-01-17 09:35:00,37.4,19.5,30.11,West,269,2.0,5.0,48,0.00,CLR,CLR,0.00,WeatherDisplay:10.37,2013-01-17 17:35:00,
2013-01-17 09:36:00,37.8,19.8,30.11,WSW,248,2.4,3.5,48,0.00,CLR,,0.00,WeatherDisplay:10.37,2013-01-17 17:36:00,
2013-01-17 09:39:00,38.5,20.0,30.11,SE,135,2.5,3.5,47,0.00,CLR,,0.00,WeatherDisplay:10.37,2013-01-17 17:39:00,
2013-01-17 09:40:00,38.5,20.0,30.11,SE,135,2.5,3.5,47,0.00,CLR,,0.00,WeatherDisplay:10.37,2013-01-17 17:40:00,
2013-01-17 09:41:00,38.5,20.0,30.11,SE,135,2.5,2.5,47,0.00,CLR,,0.00,WeatherDisplay:10.37,2013-01-17 17:41:00,
2013-01-17 09:45:00,39.0,20.0,30.10,WNW,292,2.3,3.5,46,0.00,CLR,,0.00,WeatherDisplay:10.37,2013-01-17 17:45:00,
2013-01-17 09:46:00,39.6,20.5,30.10,West,270,2.4,4.6,46,0.00,CLR,,0.00,WeatherDisplay:10.37,2013-01-17 17:46:00,
2013-01-17 09:50:00,40.1,20.4,30.10,NE,45,2.0,2.3,45,0.00,CLR,,0.00,WeatherDisplay:10.37,2013-01-17 17:50:00,
2013-01-17 09:51:00,40.1,20.4,30.10,NE,45,2.0,2.0,45,0.00,CLR,,0.00,WeatherDisplay:10.37,2013-01-17 17:51:00,
2013-01-17 09:55:00,40.8,20.6,30.10,NE,45,1.6,2.4,44,0.00,CLR,,0.00,WeatherDisplay:10.37,2013-01-17 17:55:00,
2013-01-17 09:56:00,41.0,20.2,30.10,SW,225,1.3,2.5,43,0.00,CLR,,0.00,WeatherDisplay:10.37,2013-01-17 17:56:00,
2013-01-17 10:00:00,41.7,20.8,30.10,East,90,1.1,2.3,43,0.00,CLR,,0.00,WeatherDisplay:10.37,2013-01-17 18:00:00,
2013-01-17 10:01:00,41.7,20.8,30.10,East,90,1.1,2.3,43,0.00,CLR,,0.00,WeatherDisplay:10.37,2013-01-17 18:01:00,
2013-01-17 10:05:00,42.3,20.8,30.09,ESE,112,1.5,2.3,42,0.00,CLR,,0.00,WeatherDisplay:10.37,2013-01-17 18:05:00,
2013-01-17 10:06:00,42.3,20.8,30.09,ESE,112,1.5,2.3,42,0.00,CLR,,0.00,WeatherDisplay:10.37,2013-01-17 18:06:00,
2013-01-17 10:07:00,42.3,20.8,30.09,ESE,112,1.5,1.5,42,0.00,CLR,,0.00,WeatherDisplay:10.37,2013-01-17 18:07:00,
2013-01-17 10:10:00,42.4,20.4,30.09,West,270,1.7,3.5,41,0.00,CLR,,0.00,WeatherDisplay:10.37,2013-01-17 18:10:00,
2013-01-17 10:11:00,42.4,20.4,30.09,West,270,1.7,3.5,41,0.00,CLR,,0.00,WeatherDisplay:10.37,2013-01-17 18:11:00,
2013-01-17 10:12:00,42.3,20.2,30.09,WNW,292,2.0,3.5,41,0.00,CLR,,0.00,WeatherDisplay:10.37,2013-01-17 18:12:00,
2013-01-17 10:15:00,42.1,20.0,30.09,West,270,2.6,3.5,41,0.00,CLR,,0.00,WeatherDisplay:10.37,2013-01-17 18:15:00,
2013-01-17 10:16:00,42.1,20.0,30.09,West,270,2.6,4.6,41,0.00,CLR,,0.00,WeatherDisplay:10.37,2013-01-17 18:16:00,
2013-01-17 10:17:00,42.1,20.0,30.09,West,270,2.6,4.9,41,0.00,CLR,,0.00,WeatherDisplay:10.37,2013-01-17 18:17:00,
2013-01-17 10:20:00,22.8,15.8,30.01,WNW,282,0.0,2.0,74,0.00,CLR,CLR,0.00,WeatherDisplay:10.37,2013-01-17 18:20:00,
2013-01-17 10:21:00,42.3,19.6,30.09,West,270,3.1,5.8,40,0.00,CLR,,0.00,WeatherDisplay:10.37,2013-01-17 18:21:00,
2013-01-17 10:22:00,42.4,19.8,30.09,ESE,112,3.3,5.8,40,0.00,CLR,,0.00,WeatherDisplay:10.37,2013-01-17 18:22:00,
2013-01-17 10:25:00,23.0,15.9,30.01,WNW,294,1.0,2.0,74,0.00,CLR,CLR,0.00,WeatherDisplay:10.37,2013-01-17 18:25:00,
2013-01-17 10:26:00,42.8,20.1,30.09,SW,225,2.9,3.5,40,0.00,CLR,,0.00,WeatherDisplay:10.37,2013-01-17 18:26:00,
2013-01-17 10:27:00,42.8,20.1,30.09,SW,225,2.9,3.5,40,0.00,CLR,,0.00,WeatherDisplay:10.37,2013-01-17 18:27:00,
2013-01-17 10:30:00,23.9,16.8,30.01,WNW,303,0.0,2.0,74,0.00,CLR,CLR,0.00,WeatherDisplay:10.37,2013-01-17 18:30:00,
2013-01-17 10:31:00,43.2,20.4,30.09,West,270,2.5,2.6,40,0.00,CLR,,0.00,WeatherDisplay:10.37,2013-01-17 18:31:00,
2013-01-17 10:32:00,43.2,20.4,30.09,ESE,112,2.0,2.3,40,0.00,CLR,,0.00,WeatherDisplay:10.37,2013-01-17 18:32:00,
2013-01-17 10:33:00,43.2,20.4,30.09,ESE,112,2.0,2.3,40,0.00,CLR,,0.00,WeatherDisplay:10.37,2013-01-17 18:33:00,
2013-01-17 10:35:00,24.1,16.7,30.01,West,269,0.0,2.0,73,0.00,CLR,CLR,0.00,WeatherDisplay:10.37,2013-01-17 18:35:00,
2013-01-17 10:36:00,43.5,20.8,30.09,SW,225,1.6,2.3,40,0.00,CLR,,0.00,WeatherDisplay:10.37,2013-01-17 18:36:00,
2013-01-17 10:37:00,43.5,20.8,30.09,SW,225,1.6,2.3,40,0.00,CLR,,0.00,WeatherDisplay:10.37,2013-01-17 18:37:00,
2013-01-17 10:38:00,43.9,20.5,30.09,WNW,292,1.6,2.3,39,0.00,CLR,,0.00,WeatherDisplay:10.37,2013-01-17 18:38:00,
2013-01-17 10:40:00,24.6,17.2,30.01,WSW,244,0.0,2.0,73,0.00,CLR,CLR,0.00,WeatherDisplay:10.37,2013-01-17 18:40:00,
2013-01-17 10:41:00,44.1,20.7,30.09,West,270,1.5,2.3,39,0.00,CLR,,0.00,WeatherDisplay:10.37,2013-01-17 18:41:00,
2013-01-17 10:42:00,44.2,20.8,30.09,West,270,1.7,2.3,39,0.00,CLR,,0.00,WeatherDisplay:10.37,2013-01-17 18:42:00,
2013-01-17 10:43:00,44.1,20.7,30.09,WSW,248,2.1,2.3,39,0.00,CLR,,0.00,WeatherDisplay:10.37,2013-01-17 18:43:00,
2013-01-17 10:45:00,25.3,17.2,30.00,West,272,1.0,2.0,71,0.00,CLR,CLR,0.00,WeatherDisplay:10.37,2013-01-17 18:45:00,
2013-01-17 10:46:00,44.4,20.4,30.09,West,270,2.1,2.3,38,0.00,CLR,,0.00,WeatherDisplay:10.37,2013-01-17 18:46:00,
2013-01-17 10:47:00,44.4,20.4,30.09,West,270,2.1,2.3,38,0.00,CLR,,0.00,WeatherDisplay:10.37,2013-01-17 18:47:00,
2013-01-17 10:48:00,44.6,20.5,30.09,NW,315,2.2,3.5,38,0.00,CLR,,0.00,WeatherDisplay:10.37,2013-01-17 18:48:00,
2013-01-17 10:50:00,26.1,17.6,30.00,NNW,346,1.0,2.0,70,0.00,CLR,CLR,0.00,WeatherDisplay:10.37,2013-01-17 18:50:00,
2013-01-17 10:51:00,44.8,20.7,30.09,WSW,248,2.5,3.6,38,0.00,CLR,,0.00,WeatherDisplay:10.37,2013-01-17 18:51:00,
2013-01-17 10:52:00,44.8,20.1,30.09,West,270,2.4,3.5,37,0.00,CLR,,0.00,WeatherDisplay:10.37,2013-01-17 18:52:00,
2013-01-17 10:53:00,45.1,19.7,30.09,ENE,68,2.2,2.3,36,0.00,CLR,,0.00,WeatherDisplay:10.37,2013-01-17 18:53:00,
2013-01-17 10:56:00,45.5,20.1,30.09,SW,225,2.2,2.6,36,0.00,CLR,,0.00,WeatherDisplay:10.37,2013-01-17 18:56:00,
2013-01-17 10:57:00,45.5,20.1,30.09,SW,225,2.2,2.3,36,0.00,CLR,,0.00,WeatherDisplay:10.37,2013-01-17 18:57:00,
2013-01-17 10:59:00,45.5,20.1,30.09,WSW,248,2.4,8.2,36,0.00,CLR,,0.00,WeatherDisplay:10.37,2013-01-17 18:59:00,
2013-01-17 11:00:00,27.5,18.0,30.00,WSW,244,1.0,3.0,67,0.00,CLR,CLR,0.00,WeatherDisplay:10.37,2013-01-17 19:00:00,
2013-01-17 11:01:00,45.7,19.6,30.09,SSE,158,2.4,3.3,35,0.00,CLR,,0.00,WeatherDisplay:10.37,2013-01-17 19:01:00,
2013-01-17 11:02:00,45.7,19.6,30.09,SSE,158,2.4,3.5,35,0.00,CLR,,0.00,WeatherDisplay:10.37,2013-01-17 19:02:00,
2013-01-17 11:04:00,46.0,19.9,30.08,NE,45,2.5,3.5,35,0.00,CLR,,0.00,WeatherDisplay:10.37,2013-01-17 19:04:00,
2013-01-17 11:05:00,28.4,18.1,30.00,SSW,204,1.0,3.0,65,0.00,CLR,CLR,0.00,WeatherDisplay:10.37,2013-01-17 19:05:00,
2013-01-17 11:06:00,46.2,20.0,30.08,NNW,338,2.3,3.5,35,0.00,CLR,,0.00,WeatherDisplay:10.37,2013-01-17 19:06:00,
2013-01-17 11:07:00,46.2,20.0,30.08,NNW,338,2.3,2.3,35,0.00,CLR,,0.00,WeatherDisplay:10.37,2013-01-17 19:07:00,
2013-01-17 11:08:00,46.2,20.0,30.08,SE,135,2.2,2.3,35,0.00,CLR,,0.00,WeatherDisplay:10.37,2013-01-17 19:08:00,
2013-01-17 11:09:00,46.2,20.0,30.08,SE,135,2.2,2.3,35,0.00,CLR,,0.00,WeatherDisplay:10.37,2013-01-17 19:09:00,
2013-01-17 11:10:00,28.8,17.7,30.00,SW,232,1.0,3.0,63,0.00,CLR,CLR,0.00,WeatherDisplay:10.37,2013-01-17 19:10:00,
2013-01-17 11:12:00,46.4,20.2,30.08,SSE,158,2.2,4.6,35,0.00,CLR,,0.00,WeatherDisplay:10.37,2013-01-17 19:12:00,
2013-01-17 11:13:00,46.4,20.2,30.08,SSE,158,2.2,2.3,35,0.00,CLR,,0.00,WeatherDisplay:10.37,2013-01-17 19:13:00,
2013-01-17 11:14:00,46.6,19.7,30.08,NW,315,2.2,5.8,34,0.00,CLR,,0.00,WeatherDisplay:10.37,2013-01-17 19:14:00,
2013-01-17 11:15:00,29.7,17.5,30.00,WSW,245,2.0,3.0,60,0.00,CLR,CLR,0.00,WeatherDisplay:10.37,2013-01-17 19:15:00,
2013-01-17 11:17:00,46.8,19.8,30.08,SE,135,2.2,2.2,34,0.00,CLR,,0.00,WeatherDisplay:10.37,2013-01-17 19:17:00,
2013-01-17 11:18:00,46.8,19.8,30.08,WNW,292,2.4,4.6,34,0.00,CLR,,0.00,WeatherDisplay:10.37,2013-01-17 19:18:00,
2013-01-17 11:19:00,46.8,19.8,30.08,WNW,292,2.4,4.6,34,0.00,CLR,,0.00,WeatherDisplay:10.37,2013-01-17 19:19:00,
2013-01-17 11:20:00,30.0,17.4,30.00,SSW,193,3.0,7.0,59,0.00,CLR,CLR,0.00,WeatherDisplay:10.37,2013-01-17 19:20:00,
2013-01-17 11:22:00,46.8,19.8,30.08,South,180,2.0,2.3,34,0.00,CLR,,0.00,WeatherDisplay:10.37,2013-01-17 19:22:00,
2013-01-17 11:23:00,46.8,19.8,30.08,South,180,2.0,2.3,34,0.00,CLR,,0.00,WeatherDisplay:10.37,2013-01-17 19:23:00,
2013-01-17 11:25:00,47.1,19.5,30.07,WSW,248,2.1,6.9,33,0.00,CLR,,0.00,WeatherDisplay:10.37,2013-01-17 19:25:00,
2013-01-17 11:27:00,47.3,19.6,30.07,West,270,2.2,4.6,33,0.00,CLR,,0.00,WeatherDisplay:10.37,2013-01-17 19:27:00,
2013-01-17 11:28:00,47.3,19.6,30.07,West,270,2.2,4.6,33,0.00,CLR,,0.00,WeatherDisplay:10.37,2013-01-17 19:28:00,
2013-01-17 11:30:00,47.3,19.6,30.07,North,0,2.0,3.5,33,0.00,CLR,,0.00,WeatherDisplay:10.37,2013-01-17 19:30:00,
2013-01-17 11:32:00,47.3,19.6,30.07,NNE,22,2.0,3.5,33,0.00,CLR,,0.00,WeatherDisplay:10.37,2013-01-17 19:32:00,
2013-01-17 11:33:00,47.3,19.6,30.07,NNE,22,2.0,3.5,33,0.00,CLR,,0.00,WeatherDisplay:10.37,2013-01-17 19:33:00,
2013-01-17 11:35:00,47.5,19.8,30.07,NW,315,2.2,2.3,33,0.00,CLR,,0.00,WeatherDisplay:10.37,2013-01-17 19:35:00,
2013-01-17 11:37:00,47.3,18.9,30.07,South,180,2.0,2.3,32,0.00,CLR,,0.00,WeatherDisplay:10.37,2013-01-17 19:37:00,
2013-01-17 11:38:00,47.3,18.9,30.07,South,180,2.0,2.8,32,0.00,CLR,,0.00,WeatherDisplay:10.37,2013-01-17 19:38:00,
2013-01-17 11:39:00,47.3,18.9,30.07,South,180,2.0,2.3,32,0.00,CLR,,0.00,WeatherDisplay:10.37,2013-01-17 19:39:00,
2013-01-17 11:40:00,47.5,19.0,30.07,NNW,338,2.1,3.5,32,0.00,CLR,,0.00,WeatherDisplay:10.37,2013-01-17 19:40:00,
2013-01-17 11:42:00,47.7,19.2,30.07,WSW,248,2.2,3.5,32,0.00,CLR,,0.00,WeatherDisplay:10.37,2013-01-17 19:42:00,
2013-01-17 11:43:00,47.7,19.2,30.07,WSW,248,2.2,2.2,32,0.00,CLR,,0.00,WeatherDisplay:10.37,2013-01-17 19:43:00,
2013-01-17 11:44:00,47.8,19.4,30.06,WSW,248,2.2,3.5,32,0.00,CLR,,0.00,WeatherDisplay:10.37,2013-01-17 19:44:00,
2013-01-17 11:45:00,47.8,19.4,30.06,WSW,248,2.2,3.5,32,0.00,CLR,,0.00,WeatherDisplay:10.37,2013-01-17 19:45:00,
2013-01-17 11:48:00,48.4,19.1,30.06,NW,315,2.2,2.3,31,0.00,CLR,,0.00,WeatherDisplay:10.37,2013-01-17 19:48:00,
2013-01-17 11:49:00,48.4,19.1,30.06,NW,315,2.2,2.3,31,0.00,CLR,,0.00,WeatherDisplay:10.37,2013-01-17 19:49:00,
2013-01-17 11:50:00,48.6,19.3,30.06,WSW,248,2.3,2.3,31,0.00,CLR,,0.00,WeatherDisplay:10.37,2013-01-17 19:50:00,
2013-01-17 11:53:00,48.6,19.3,30.06,WSW,248,2.2,2.3,31,0.00,CLR,,0.00,WeatherDisplay:10.37,2013-01-17 19:53:00,
2013-01-17 11:54:00,48.7,19.4,30.06,WNW,292,2.1,2.3,31,0.00,CLR,,0.00,WeatherDisplay:10.37,2013-01-17 19:54:00,
2013-01-17 11:55:00,48.9,19.6,30.06,SW,225,2.0,2.3,31,0.00,CLR,,0.00,WeatherDisplay:10.37,2013-01-17 19:55:00,
2013-01-17 11:58:00,49.1,19.7,30.06,West,270,1.8,1.8,31,0.00,CLR,,0.00,WeatherDisplay:10.37,2013-01-17 19:58:00,
2013-01-17 12:00:00,49.2,19.8,30.06,West,262,1.0,2.0,31,0.00,CLR,CLR,0.00,WeatherDisplay:10.37,2013-01-17 20:00:00,
2013-01-17 12:03:00,49.1,20.5,30.06,West,270,1.3,4.6,32,0.00,CLR,,0.00,WeatherDisplay:10.37,2013-01-17 20:03:00,
2013-01-17 12:04:00,49.1,20.5,30.05,NW,315,1.6,4.6,32,0.00,CLR,,0.00,WeatherDisplay:10.37,2013-01-17 20:04:00,
2013-01-17 12:05:00,49.1,20.5,30.05,WNW,283,1.0,5.0,32,0.00,CLR,CLR,0.00,WeatherDisplay:10.37,2013-01-17 20:05:00,
2013-01-17 12:06:00,49.1,20.5,30.05,NW,315,1.6,2.8,32,0.00,CLR,,0.00,WeatherDisplay:10.37,2013-01-17 20:06:00,
2013-01-17 12:08:00,49.1,20.5,30.05,NW,315,1.6,2.3,32,0.00,CLR,,0.00,WeatherDisplay:10.37,2013-01-17 20:08:00,
2013-01-17 12:09:00,49.1,20.5,30.05,NW,315,1.6,2.8,32,0.00,CLR,,0.00,WeatherDisplay:10.37,2013-01-17 20:09:00,
2013-01-17 12:10:00,49.1,20.5,30.05,NW,315,1.6,2.8,32,0.00,CLR,,0.00,WeatherDisplay:10.37,2013-01-17 20:10:00,
2013-01-17 12:11:00,49.1,20.5,30.05,NW,315,1.6,2.3,32,0.00,CLR,,0.00,WeatherDisplay:10.37,2013-01-17 20:11:00,
2013-01-17 12:13:00,48.7,20.2,30.05,NW,315,1.6,2.8,32,0.00,CLR,,0.00,WeatherDisplay:10.37,2013-01-17 20:13:00,
2013-01-17 12:14:00,48.7,20.2,30.05,NW,315,1.6,2.3,32,0.00,CLR,,0.00,WeatherDisplay:10.37,2013-01-17 20:14:00,
2013-01-17 12:15:00,48.7,20.2,30.05,NW,315,1.6,2.3,32,0.00,CLR,,0.00,WeatherDisplay:10.37,2013-01-17 20:15:00,
2013-01-17 12:16:00,48.7,20.2,30.05,WNW,292,3.7,3.7,32,0.00,CLR,,0.00,WeatherDisplay:10.37,2013-01-17 20:16:00,
2013-01-17 12:18:00,48.7,20.9,30.05,WNW,292,3.8,4.6,33,0.00,CLR,,0.00,WeatherDisplay:10.37,2013-01-17 20:18:00,
2013-01-17 12:19:00,48.7,20.9,30.05,West,270,3.9,4.6,33,0.00,CLR,,0.00,WeatherDisplay:10.37,2013-01-17 20:19:00,
2013-01-17 12:20:00,48.7,20.9,30.05,West,270,3.9,4.6,33,0.00,CLR,,0.00,WeatherDisplay:10.37,2013-01-17 20:20:00,
2013-01-17 12:21:00,48.7,20.9,30.05,West,270,3.9,4.6,33,0.00,CLR,,0.00,WeatherDisplay:10.37,2013-01-17 20:21:00,
2013-01-17 12:24:00,48.7,20.2,30.04,West,270,3.6,4.9,32,0.00,CLR,,0.00,WeatherDisplay:10.37,2013-01-17 20:24:00,
2013-01-17 12:25:00,48.7,20.2,30.04,West,270,3.6,4.9,32,0.00,CLR,,0.00,WeatherDisplay:10.37,2013-01-17 20:25:00,
2013-01-17 12:26:00,48.7,20.9,30.04,West,270,3.5,4.6,33,0.00,CLR,,0.00,WeatherDisplay:10.37,2013-01-17 20:26:00,
2013-01-17 12:29:00,48.7,20.9,30.04,NNW,338,3.5,4.6,33,0.00,CLR,,0.00,WeatherDisplay:10.37,2013-01-17 20:29:00,
2013-01-17 12:30:00,48.7,20.2,30.04,West,270,3.3,4.6,32,0.00,CLR,,0.00,WeatherDisplay:10.37,2013-01-17 20:30:00,
2013-01-17 12:31:00,48.7,20.2,30.04,West,270,3.3,4.6,32,0.00,CLR,,0.00,WeatherDisplay:10.37,2013-01-17 20:31:00,
2013-01-17 12:34:00,48.6,20.7,30.04,East,90,3.2,3.5,33,0.00,CLR,,0.00,WeatherDisplay:10.37,2013-01-17 20:34:00,
2013-01-17 12:35:00,48.6,20.7,30.04,East,90,3.2,3.5,33,0.00,CLR,,0.00,WeatherDisplay:10.37,2013-01-17 20:35:00,
2013-01-17 12:37:00,48.4,20.6,30.04,West,270,3.0,3.5,33,0.00,CLR,,0.00,WeatherDisplay:10.37,2013-01-17 20:37:00,
2013-01-17 12:39:00,48.4,20.6,30.04,West,270,3.0,4.6,33,0.00,CLR,,0.00,WeatherDisplay:10.37,2013-01-17 20:39:00,
2013-01-17 12:40:00,48.4,19.8,30.04,WSW,248,3.3,4.6,32,0.00,CLR,,0.00,WeatherDisplay:10.37,2013-01-17 20:40:00,
2013-01-17 12:42:00,48.4,20.6,30.04,WNW,292,3.5,6.0,33,0.00,CLR,,0.00,WeatherDisplay:10.37,2013-01-17 20:42:00,
2013-01-17 12:44:00,48.2,19.7,30.04,West,270,3.9,6.9,32,0.00,CLR,,0.00,WeatherDisplay:10.37,2013-01-17 20:44:00,
2013-01-17 12:45:00,48.2,19.7,30.04,West,270,3.9,6.9,32,0.00,CLR,,0.00,WeatherDisplay:10.37,2013-01-17 20:45:00,
2013-01-17 12:47:00,48.0,20.2,30.04,West,270,4.1,5.8,33,0.00,CLR,,0.00,WeatherDisplay:10.37,2013-01-17 20:47:00,
2013-01-17 12:49:00,48.0,20.2,30.04,West,270,4.3,4.3,33,0.00,CLR,,0.00,WeatherDisplay:10.37,2013-01-17 20:49:00,
2013-01-17 12:50:00,48.0,20.2,30.04,WNW,292,3.9,3.9,33,0.00,CLR,,0.00,WeatherDisplay:10.37,2013-01-17 20:50:00,
2013-01-17 12:52:00,48.0,20.2,30.04,West,270,3.8,5.8,33,0.00,CLR,,0.00,WeatherDisplay:10.37,2013-01-17 20:52:00,
2013-01-17 12:55:00,48.0,20.2,30.04,West,270,3.7,5.8,33,0.00,CLR,,0.00,WeatherDisplay:10.37,2013-01-17 20:55:00,
2013-01-17 12:56:00,48.0,20.2,30.04,NW,315,3.6,5.1,33,0.00,CLR,,0.00,WeatherDisplay:10.37,2013-01-17 20:56:00,
2013-01-17 12:57:00,48.0,20.2,30.04,NW,315,3.6,4.6,33,0.00,CLR,,0.00,WeatherDisplay:10.37,2013-01-17 20:57:00,
2013-01-17 13:00:00,48.0,20.2,30.04,WNW,284,3.0,7.0,33,0.00,CLR,CLR,0.00,WeatherDisplay:10.37,2013-01-17 21:00:00,
2013-01-17 13:01:00,48.0,20.2,30.04,NNW,338,4.0,4.0,33,0.00,CLR,,0.00,WeatherDisplay:10.37,2013-01-17 21:01:00,
2013-01-17 13:02:00,48.0,20.2,30.04,West,270,4.3,5.8,33,0.00,CLR,,0.00,WeatherDisplay:10.37,2013-01-17 21:02:00,
2013-01-17 13:05:00,48.0,20.2,30.03,WNW,292,4.3,6.9,33,0.00,CLR,,0.00,WeatherDisplay:10.37,2013-01-17 21:05:00,
2013-01-17 13:06:00,48.0,20.2,30.03,WNW,292,4.3,6.9,33,0.00,CLR,,0.00,WeatherDisplay:10.37,2013-01-17 21:06:00,
2013-01-17 13:07:00,48.0,20.2,30.03,WNW,292,4.3,4.6,33,0.00,CLR,,0.00,WeatherDisplay:10.37,2013-01-17 21:07:00,
2013-01-17 13:10:00,48.2,20.4,30.03,West,270,3.7,4.6,33,0.00,CLR,,0.00,WeatherDisplay:10.37,2013-01-17 21:10:00,
2013-01-17 13:11:00,48.2,20.4,30.03,West,270,3.7,4.6,33,0.00,CLR,,0.00,WeatherDisplay:10.37,2013-01-17 21:11:00,
2013-01-17 13:12:00,48.0,20.2,30.03,NW,315,3.6,4.6,33,0.00,CLR,,0.00,WeatherDisplay:10.37,2013-01-17 21:12:00,
2013-01-17 13:15:00,48.0,20.2,30.03,NW,315,3.5,4.9,33,0.00,CLR,,0.00,WeatherDisplay:10.37,2013-01-17 21:15:00,
2013-01-17 13:16:00,48.2,20.4,30.03,WSW,248,3.3,4.8,33,0.00,CLR,,0.00,WeatherDisplay:10.37,2013-01-17 21:16:00,
2013-01-17 13:17:00,48.2,20.4,30.03,West,270,3.3,4.6,33,0.00,CLR,,0.00,WeatherDisplay:10.37,2013-01-17 21:17:00,
2013-01-17 13:20:00,48.0,20.2,30.03,NW,315,3.5,4.6,33,0.00,CLR,,0.00,WeatherDisplay:10.37,2013-01-17 21:20:00,
2013-01-17 13:21:00,48.0,20.2,30.03,West,270,3.7,4.6,33,0.00,CLR,,0.00,WeatherDisplay:10.37,2013-01-17 21:21:00,
2013-01-17 13:22:00,48.0,20.2,30.03,West,270,3.7,4.6,33,0.00,CLR,,0.00,WeatherDisplay:10.37,2013-01-17 21:22:00,
2013-01-17 13:23:00,48.0,20.2,30.03,West,270,3.7,4.6,33,0.00,CLR,,0.00,WeatherDisplay:10.37,2013-01-17 21:23:00,
2013-01-17 13:25:00,25.7,12.9,29.98,West,271,0.0,1.0,58,0.00,CLR,CLR,0.00,WeatherDisplay:10.37,2013-01-17 21:25:00,
2013-01-17 13:26:00,47.8,20.8,30.03,West,270,4.3,6.9,34,0.00,CLR,,0.00,WeatherDisplay:10.37,2013-01-17 21:26:00,
2013-01-17 13:27:00,47.8,20.8,30.03,West,270,4.3,6.9,34,0.00,CLR,,0.00,WeatherDisplay:10.37,2013-01-17 21:27:00,
2013-01-17 13:28:00,48.0,20.9,30.03,NW,315,4.1,5.8,34,0.00,CLR,,0.00,WeatherDisplay:10.37,2013-01-17 21:28:00,
2013-01-17 13:30:00,25.3,12.6,29.98,WNW,285,0.0,0.0,58,0.00,CLR,CLR,0.00,WeatherDisplay:10.37,2013-01-17 21:30:00,
2013-01-17 13:31:00,47.8,20.8,30.03,NW,315,4.3,4.6,34,0.00,CLR,,0.00,WeatherDisplay:10.37,2013-01-17 21:31:00,
2013-01-17 13:32:00,48.0,20.9,30.03,WSW,248,4.1,4.6,34,0.00,CLR,,0.00,WeatherDisplay:10.37,2013-01-17 21:32:00,
2013-01-17 13:33:00,48.0,20.9,30.03,WSW,248,4.1,4.1,34,0.00,CLR,,0.00,WeatherDisplay:10.37,2013-01-17 21:33:00,
2013-01-17 13:35:00,25.0,12.3,29.98,NNW,328,0.0,0.0,58,0.00,CLR,CLR,0.00,WeatherDisplay:10.37,2013-01-17 21:35:00,
2013-01-17 13:36:00,48.0,20.9,30.03,WNW,292,3.8,6.9,34,0.00,CLR,,0.00,WeatherDisplay:10.37,2013-01-17 21:36:00,
2013-01-17 13:37:00,48.0,20.9,30.03,WNW,292,3.8,6.9,34,0.00,CLR,,0.00,WeatherDisplay:10.37,2013-01-17 21:37:00,
2013-01-17 13:38:00,47.8,20.8,30.03,West,270,4.0,6.9,34,0.00,CLR,,0.00,WeatherDisplay:10.37,2013-01-17 21:38:00,
2013-01-17 13:40:00,24.6,11.9,29.98,NNW,330,0.0,0.0,58,0.00,CLR,CLR,0.00,WeatherDisplay:10.37,2013-01-17 21:40:00,
2013-01-17 13:41:00,48.0,20.9,30.03,West,270,4.0,5.2,34,0.00,CLR,,0.00,WeatherDisplay:10.37,2013-01-17 21:41:00,
2013-01-17 13:42:00,48.0,20.9,30.03,WNW,292,4.3,6.9,34,0.00,CLR,,0.00,WeatherDisplay:10.37,2013-01-17 21:42:00,
2013-01-17 13:44:00,48.0,20.9,30.02,WSW,248,4.6,6.9,34,0.00,CLR,,0.00,WeatherDisplay:10.37,2013-01-17 21:44:00,
2013-01-17 13:45:00,24.4,11.8,29.98,NNW,339,0.0,2.0,58,0.00,CLR,CLR,0.00,WeatherDisplay:10.37,2013-01-17 21:45:00,
2013-01-17 13:46:00,47.8,20.8,30.02,West,270,4.8,6.9,34,0.00,CLR,,0.00,WeatherDisplay:10.37,2013-01-17 21:46:00,
2013-01-17 13:47:00,47.8,20.8,30.02,West,270,4.8,4.8,34,0.00,CLR,,0.00,WeatherDisplay:10.37,2013-01-17 21:47:00,
2013-01-17 13:49:00,48.0,21.6,30.02,West,270,4.6,5.8,35,0.00,CLR,,0.00,WeatherDisplay:10.37,2013-01-17 21:49:00,
2013-01-17 13:50:00,24.3,11.6,29.98,NNW,344,0.0,2.0,58,0.00,CLR,CLR,0.00,WeatherDisplay:10.37,2013-01-17 21:50:00,
2013-01-17 13:51:00,48.2,21.1,30.02,WNW,292,4.4,5.8,34,0.00,CLR,,0.00,WeatherDisplay:10.37,2013-01-17 21:51:00,
2013-01-17 13:52:00,48.2,21.1,30.02,WNW,292,4.6,6.9,34,0.00,CLR,,0.00,WeatherDisplay:10.37,2013-01-17 21:52:00,
2013-01-17 13:54:00,48.2,21.1,30.02,NW,315,4.1,6.9,34,0.00,CLR,,0.00,WeatherDisplay:10.37,2013-01-17 21:54:00,
2013-01-17 13:55:00,24.3,12.0,29.98,West,266,0.0,0.0,59,0.00,CLR,CLR,0.00,WeatherDisplay:10.37,2013-01-17 21:55:00,
2013-01-17 13:56:00,48.2,21.1,30.02,NW,315,3.5,4.6,34,0.00,CLR,,0.00,WeatherDisplay:10.37,2013-01-17 21:56:00,
2013-01-17 13:57:00,48.2,21.1,30.02,NW,315,3.5,3.5,34,0.00,CLR,,0.00,WeatherDisplay:10.37,2013-01-17 21:57:00,
2013-01-17 14:00:00,48.2,21.8,30.02,NNW,338,3.5,4.6,35,0.00,CLR,,0.00,WeatherDisplay:10.37,2013-01-17 22:00:00,
2013-01-17 14:01:00,48.2,21.8,30.02,NNW,338,3.5,4.6,35,0.00,CLR,,0.00,WeatherDisplay:10.37,2013-01-17 22:01:00,
2013-01-17 14:02:00,48.4,21.3,30.02,ESE,112,3.5,4.6,34,0.00,CLR,,0.00,WeatherDisplay:10.37,2013-01-17 22:02:00,
2013-01-17 14:05:00,48.4,21.3,30.01,West,270,3.3,3.3,34,0.00,CLR,,0.00,WeatherDisplay:10.37,2013-01-17 22:05:00,
2013-01-17 14:06:00,48.6,21.4,30.01,NW,315,3.2,3.5,34,0.00,CLR,,0.00,WeatherDisplay:10.37,2013-01-17 22:06:00,
2013-01-17 14:07:00,48.6,21.4,30.01,NW,315,3.2,3.5,34,0.00,CLR,,0.00,WeatherDisplay:10.37,2013-01-17 22:07:00,
2013-01-17 14:10:00,48.4,21.3,30.01,West,270,2.8,2.8,34,0.00,CLR,,0.00,WeatherDisplay:10.37,2013-01-17 22:10:00,
2013-01-17 14:11:00,48.4,21.3,30.01,WSW,248,3.0,3.0,34,0.00,CLR,,0.00,WeatherDisplay:10.37,2013-01-17 22:11:00,
2013-01-17 14:12:00,48.4,21.3,30.01,WSW,248,3.0,6.9,34,0.00,CLR,,0.00,WeatherDisplay:10.37,2013-01-17 22:12:00,
2013-01-17 14:13:00,48.4,21.3,30.01,WSW,248,3.0,6.9,34,0.00,CLR,,0.00,WeatherDisplay:10.37,2013-01-17 22:13:00,
2013-01-17 14:15:00,48.2,21.1,30.01,WNW,292,3.2,5.8,34,0.00,CLR,,0.00,WeatherDisplay:10.37,2013-01-17 22:15:00,
2013-01-17 14:17:00,48.4,21.3,30.01,West,270,3.7,5.8,34,0.00,CLR,,0.00,WeatherDisplay:10.37,2013-01-17 22:17:00,
2013-01-17 14:18:00,48.4,21.3,30.01,WSW,248,4.1,5.9,34,0.00,CLR,,0.00,WeatherDisplay:10.37,2013-01-17 22:18:00,
2013-01-17 14:20:00,48.2,21.1,30.01,West,270,4.4,5.8,34,0.00,CLR,,0.00,WeatherDisplay:10.37,2013-01-17 22:20:00,
2013-01-17 14:22:00,48.4,21.3,30.01,West,270,4.9,6.9,34,0.00,CLR,,0.00,WeatherDisplay:10.37,2013-01-17 22:22:00,
2013-01-17 14:23:00,48.4,21.3,30.01,West,270,4.9,6.9,34,0.00,CLR,,0.00,WeatherDisplay:10.37,2013-01-17 22:23:00,
2013-01-17 14:25:00,48.2,21.8,30.01,WNW,292,4.7,4.7,35,0.00,CLR,,0.00,WeatherDisplay:10.37,2013-01-17 22:25:00,
2013-01-17 14:27:00,48.2,21.1,30.01,West,270,4.4,4.6,34,0.00,CLR,,0.00,WeatherDisplay:10.37,2013-01-17 22:27:00,
2013-01-17 14:28:00,48.2,21.8,30.01,West,270,4.1,4.6,35,0.00,CLR,,0.00,WeatherDisplay:10.37,2013-01-17 22:28:00,
2013-01-17 14:30:00,48.2,21.8,30.01,WSW,248,3.8,3.8,35,0.00,CLR,,0.00,WeatherDisplay:10.37,2013-01-17 22:30:00,
2013-01-17 14:32:00,48.2,21.8,30.01,WNW,292,3.6,4.6,35,0.00,CLR,,0.00,WeatherDisplay:10.37,2013-01-17 22:32:00,
2013-01-17 14:33:00,48.2,21.8,30.01,WNW,292,3.6,4.9,35,0.00,CLR,,0.00,WeatherDisplay:10.37,2013-01-17 22:33:00,
2013-01-17 14:35:00,22.8,11.4,29.98,NNE,16,0.0,0.0,61,0.00,CLR,CLR,0.00,WeatherDisplay:10.37,2013-01-17 22:35:00,
2013-01-17 14:36:00,47.8,22.1,30.01,NW,315,2.9,3.6,36,0.00,CLR,,0.00,WeatherDisplay:10.37,2013-01-17 22:36:00,
2013-01-17 14:37:00,47.8,22.1,30.01,NW,315,2.9,3.6,36,0.00,CLR,,0.00,WeatherDisplay:10.37,2013-01-17 22:37:00,
2013-01-17 14:38:00,47.7,22.0,30.01,NW,315,3.0,4.6,36,0.00,CLR,,0.00,WeatherDisplay:10.37,2013-01-17 22:38:00,
2013-01-17 14:40:00,23.0,11.5,29.98,North,351,0.0,0.0,61,0.00,CLR,CLR,0.00,WeatherDisplay:10.37,2013-01-17 22:40:00,
2013-01-17 14:41:00,47.7,22.0,30.01,West,270,3.1,3.5,36,0.00,CLR,,0.00,WeatherDisplay:10.37,2013-01-17 22:41:00,
2013-01-17 14:42:00,47.8,22.1,30.01,WSW,248,3.0,3.5,36,0.00,CLR,,0.00,WeatherDisplay:10.37,2013-01-17 22:42:00,
2013-01-17 14:43:00,47.8,22.1,30.01,WSW,248,3.0,3.0,36,0.00,CLR,,0.00,WeatherDisplay:10.37,2013-01-17 22:43:00,
2013-01-17 14:44:00,47.8,22.1,30.01,West,270,3.1,5.8,36,0.00,CLR,,0.00,WeatherDisplay:10.37,2013-01-17 22:44:00,
2013-01-17 14:45:00,23.0,11.9,29.98,NW,304,0.0,1.0,62,0.00,CLR,CLR,0.00,WeatherDisplay:10.37,2013-01-17 22:45:00,
2013-01-17 14:46:00,47.7,22.0,30.01,West,270,3.5,5.8,36,0.00,CLR,,0.00,WeatherDisplay:10.37,2013-01-17 22:46:00,
2013-01-17 14:47:00,47.7,22.0,30.01,West,270,3.5,4.6,36,0.00,CLR,,0.00,WeatherDisplay:10.37,2013-01-17 22:47:00,
2013-01-17 14:49:00,47.8,22.1,30.01,NW,315,3.2,3.5,36,0.00,CLR,,0.00,WeatherDisplay:10.37,2013-01-17 22:49:00,
2013-01-17 14:50:00,23.2,12.4,29.98,West,271,0.0,1.0,63,0.00,CLR,CLR,0.00,WeatherDisplay:10.37,2013-01-17 22:50:00,
2013-01-17 14:52:00,48.0,22.3,30.01,NW,315,2.9,4.0,36,0.00,CLR,,0.00,WeatherDisplay:10.37,2013-01-17 22:52:00,
2013-01-17 14:54:00,48.0,22.3,30.01,West,270,2.9,4.6,36,0.00,CLR,,0.00,WeatherDisplay:10.37,2013-01-17 22:54:00,
2013-01-17 14:55:00,23.0,12.3,29.98,West,276,1.0,2.0,63,0.00,CLR,CLR,0.00,WeatherDisplay:10.37,2013-01-17 22:55:00,
2013-01-17 14:57:00,47.8,22.1,30.01,West,270,2.4,3.6,36,0.00,CLR,,0.00,WeatherDisplay:10.37,2013-01-17 22:57:00,
2013-01-17 14:59:00,47.8,22.1,30.01,WSW,248,2.3,3.5,36,0.00,CLR,,0.00,WeatherDisplay:10.37,2013-01-17 22:59:00,
2013-01-17 15:00:00,23.0,12.3,29.98,West,272,1.0,2.0,63,0.00,CLR,CLR,0.00,WeatherDisplay:10.37,2013-01-17 23:00:00,
2013-01-17 15:02:00,48.0,22.3,30.01,NNW,338,2.2,2.3,36,0.00,CLR,,0.00,WeatherDisplay:10.37,2013-01-17 23:02:00,
2013-01-17 15:04:00,47.8,22.1,30.01,WNW,292,2.1,2.3,36,0.00,CLR,,0.00,WeatherDisplay:10.37,2013-01-17 23:04:00,
2013-01-17 15:05:00,23.0,12.3,29.97,West,259,1.0,0.0,63,0.00,CLR,CLR,0.00,WeatherDisplay:10.37,2013-01-17 23:05:00,
2013-01-17 15:07:00,47.7,22.0,30.01,WNW,292,2.3,4.6,36,0.00,CLR,,0.00,WeatherDisplay:10.37,2013-01-17 23:07:00,
2013-01-17 15:09:00,47.7,22.0,30.01,WSW,248,2.5,3.7,36,0.00,CLR,,0.00,WeatherDisplay:10.37,2013-01-17 23:09:00,
2013-01-17 15:10:00,23.0,12.3,29.97,ENE,68,1.0,0.0,63,0.00,CLR,CLR,0.00,WeatherDisplay:10.37,2013-01-17 23:10:00,
2013-01-17 15:12:00,47.3,22.3,30.01,WNW,292,2.5,3.5,37,0.00,CLR,,0.00,WeatherDisplay:10.37,2013-01-17 23:12:00,
2013-01-17 15:14:00,47.5,21.8,30.01,NW,315,2.2,3.5,36,0.00,CLR,,0.00,WeatherDisplay:10.37,2013-01-17 23:14:00,
2013-01-17 15:15:00,47.5,21.8,30.01,NW,315,2.2,3.5,36,0.00,CLR,,0.00,WeatherDisplay:10.37,2013-01-17 23:15:00,
2013-01-17 15:17:00,47.3,22.3,30.01,WSW,248,2.2,4.6,37,0.00,CLR,,0.00,WeatherDisplay:10.37,2013-01-17 23:17:00,
2013-01-17 15:18:00,47.3,22.3,30.01,WNW,292,2.1,4.6,37,0.00,CLR,,0.00,WeatherDisplay:10.37,2013-01-17 23:18:00,
2013-01-17 15:19:00,47.3,22.3,30.01,WNW,292,2.1,3.6,37,0.00,CLR,,0.00,WeatherDisplay:10.37,2013-01-17 23:19:00,
2013-01-17 15:20:00,47.2,22.3,30.01,WNW,286,2.0,5.0,37,0.00,CLR,CLR,0.00,WeatherDisplay:10.37,2013-01-17 23:20:00,
2013-01-17 15:22:00,46.9,22.0,30.01,WSW,248,1.8,2.3,37,0.00,CLR,,0.00,WeatherDisplay:10.37,2013-01-17 23:22:00,
2013-01-17 15:23:00,46.9,22.0,30.01,WSW,248,1.8,2.6,37,0.00,CLR,,0.00,WeatherDisplay:10.37,2013-01-17 23:23:00,
2013-01-17 15:24:00,46.9,22.0,30.01,NNW,338,2.0,3.5,37,0.00,CLR,,0.00,WeatherDisplay:10.37,2013-01-17 23:24:00,
2013-01-17 15:25:00,46.9,22.0,30.01,West,275,2.0,4.0,37,0.00,CLR,CLR,0.00,WeatherDisplay:10.37,2013-01-17 23:25:00,
2013-01-17 15:28:00,46.8,21.8,30.01,West,270,1.8,3.5,37,0.00,CLR,,0.00,WeatherDisplay:10.37,2013-01-17 23:28:00,
2013-01-17 15:29:00,46.6,21.7,30.01,West,270,2.0,0.0,37,0.00,CLR,,0.00,WeatherDisplay:10.37,2013-01-17 23:29:00,
2013-01-17 15:30:00,46.6,21.7,30.01,West,270,2.0,0.0,37,0.00,CLR,,0.00,WeatherDisplay:10.37,2013-01-17 23:30:00,
2013-01-17 15:33:00,46.4,21.5,30.01,NW,315,2.3,4.6,37,0.00,CLR,,0.00,WeatherDisplay:10.37,2013-01-17 23:33:00,
2013-01-17 15:35:00,46.4,22.1,30.01,WNW,292,2.5,5.8,38,0.00,CLR,,0.00,WeatherDisplay:10.37,2013-01-17 23:35:00,
2013-01-17 15:38:00,46.0,21.8,30.01,NW,315,3.0,3.5,38,0.00,CLR,,0.00,WeatherDisplay:10.37,2013-01-17 23:38:00,
2013-01-17 15:40:00,46.0,22.4,30.01,WNW,292,3.5,3.9,39,0.00,CLR,,0.00,WeatherDisplay:10.37,2013-01-17 23:40:00,
2013-01-17 15:43:00,45.9,22.3,30.01,WNW,292,3.5,4.6,39,0.00,CLR,,0.00,WeatherDisplay:10.37,2013-01-17 23:43:00,
2013-01-17 15:45:00,45.7,22.1,30.01,NW,315,3.3,3.5,39,0.00,CLR,,0.00,WeatherDisplay:10.37,2013-01-17 23:45:00,
2013-01-17 15:48:00,45.9,22.3,30.01,WNW,292,2.5,2.5,39,0.00,CLR,,0.00,WeatherDisplay:10.37,2013-01-17 23:48:00,
2013-01-17 15:50:00,45.5,21.9,30.01,NW,315,2.5,3.5,39,0.00,CLR,,0.00,WeatherDisplay:10.37,2013-01-17 23:50:00,
2013-01-17 15:53:00,45.3,21.8,30.01,WNW,292,2.4,2.4,39,0.00,CLR,,0.00,WeatherDisplay:10.37,2013-01-17 23:53:00,
2013-01-17 15:54:00,45.3,21.8,30.01,West,270,2.4,2.5,39,0.00,CLR,,0.00,WeatherDisplay:10.37,2013-01-17 23:54:00,
2013-01-17 15:55:00,45.3,21.8,30.01,West,270,2.4,2.4,39,0.00,CLR,,0.00,WeatherDisplay:10.37,2013-01-17 23:55:00,
2013-01-17 15:58:00,45.0,22.1,30.01,NW,315,2.6,2.6,40,0.00,CLR,,0.00,WeatherDisplay:10.37,2013-01-17 23:58:00,
2013-01-17 15:59:00,45.0,22.1,30.01,NW,315,2.6,2.6,40,0.00,CLR,,0.00,WeatherDisplay:10.37,2013-01-17 23:59:00,
2013-01-17 16:00:00,44.6,21.7,30.01,WNW,292,2.2,2.3,40,0.00,CLR,,0.00,WeatherDisplay:10.37,2013-01-18 00:00:00,
2013-01-17 16:03:00,44.6,21.7,30.01,NNE,22,1.6,0.0,40,0.00,CLR,,0.00,WeatherDisplay:10.37,2013-01-18 00:03:00,
2013-01-17 16:04:00,44.6,21.7,30.02,West,270,1.3,1.3,40,0.00,CLR,,0.00,WeatherDisplay:10.37,2013-01-18 00:04:00,
2013-01-17 16:05:00,44.6,21.7,30.02,West,270,1.3,1.3,40,0.00,CLR,,0.00,WeatherDisplay:10.37,2013-01-18 00:05:00,
2013-01-17 16:06:00,44.6,21.7,30.02,NW,315,1.1,2.3,40,0.00,CLR,,0.00,WeatherDisplay:10.37,2013-01-18 00:06:00,
2013-01-17 16:08:00,45.0,22.1,30.02,West,270,1.0,2.3,40,0.00,CLR,,0.00,WeatherDisplay:10.37,2013-01-18 00:08:00,
2013-01-17 16:10:00,45.1,22.2,30.02,NNE,22,0.9,2.3,40,0.00,CLR,,0.00,WeatherDisplay:10.37,2013-01-18 00:10:00,
2013-01-17 16:11:00,45.1,22.2,30.02,NNE,22,0.9,1.5,40,0.00,CLR,,0.00,WeatherDisplay:10.37,2013-01-18 00:11:00,
2013-01-17 16:14:00,44.8,21.9,30.02,NNW,338,1.3,1.6,40,0.00,CLR,,0.00,WeatherDisplay:10.37,2013-01-18 00:14:00,
2013-01-17 16:15:00,44.8,21.9,30.02,NNW,338,1.3,1.3,40,0.00,CLR,,0.00,WeatherDisplay:10.37,2013-01-18 00:15:00,
2013-01-17 16:16:00,44.6,21.7,30.02,NW,315,1.1,1.1,40,0.00,CLR,,0.00,WeatherDisplay:10.37,2013-01-18 00:16:00,
2013-01-17 16:19:00,44.4,21.6,30.02,West,270,1.0,2.3,40,0.00,CLR,,0.00,WeatherDisplay:10.37,2013-01-18 00:19:00,
2013-01-17 16:20:00,44.1,21.3,30.02,WSW,248,1.0,2.3,40,0.00,CLR,,0.00,WeatherDisplay:10.37,2013-01-18 00:20:00,
2013-01-17 16:21:00,44.1,21.3,30.02,WSW,248,1.0,2.3,40,0.00,CLR,,0.00,WeatherDisplay:10.37,2013-01-18 00:21:00,
2013-01-17 16:24:00,43.9,21.1,30.01,West,270,1.3,3.5,40,0.00,CLR,,0.00,WeatherDisplay:10.37,2013-01-18 00:24:00,
2013-01-17 16:25:00,43.9,21.1,30.01,West,270,1.3,3.5,40,0.00,CLR,,0.00,WeatherDisplay:10.37,2013-01-18 00:25:00,
2013-01-17 16:26:00,43.9,21.1,30.01,West,270,1.6,3.5,40,0.00,CLR,,0.00,WeatherDisplay:10.37,2013-01-18 00:26:00,
2013-01-17 16:29:00,43.7,20.9,30.01,West,270,1.7,1.7,40,0.00,CLR,,0.00,WeatherDisplay:10.37,2013-01-18 00:29:00,
2013-01-17 16:30:00,43.5,20.8,30.01,West,270,1.8,1.8,40,0.00,CLR,,0.00,WeatherDisplay:10.37,2013-01-18 00:30:00,
2013-01-17 16:31:00,43.5,20.8,30.01,West,270,1.8,1.8,40,0.00,CLR,,0.00,WeatherDisplay:10.37,2013-01-18 00:31:00,
2013-01-17 16:34:00,42.8,20.1,30.01,NE,45,1.4,0.0,40,0.00,CLR,,0.00,WeatherDisplay:10.37,2013-01-18 00:34:00,
2013-01-17 16:35:00,42.8,20.1,30.01,NE,45,1.4,0.0,40,0.00,CLR,,0.00,WeatherDisplay:10.37,2013-01-18 00:35:00,
2013-01-17 16:36:00,42.6,21.1,30.01,WSW,248,1.0,0.0,42,0.00,CLR,,0.00,WeatherDisplay:10.37,2013-01-18 00:36:00,
2013-01-17 16:39:00,42.3,21.3,30.01,West,270,0.7,1.1,43,0.00,CLR,,0.00,WeatherDisplay:10.37,2013-01-18 00:39:00,
2013-01-17 16:40:00,42.1,21.2,30.01,WSW,248,0.6,1.1,43,0.00,CLR,,0.00,WeatherDisplay:10.37,2013-01-18 00:40:00,
2013-01-17 16:45:00,21.4,12.5,29.97,NW,306,0.0,1.0,68,0.00,CLR,CLR,0.00,WeatherDisplay:10.37,2013-01-18 00:45:00,
2013-01-17 17:29:00,42.1,21.2,30.01,WSW,248,0.6,1.1,43,0.00,CLR,,0.00,WeatherDisplay:10.37,2013-01-18 01:29:00,
2013-01-17 17:34:00,42.1,21.2,30.01,WSW,248,0.6,1.6,43,0.00,CLR,,0.00,WeatherDisplay:10.37,2013-01-18 01:34:00,
2013-01-17 17:35:00,42.1,21.2,30.01,WSW,248,0.6,1.1,43,0.00,CLR,,0.00,WeatherDisplay:10.37,2013-01-18 01:35:00,
2013-01-17 17:39:00,42.1,21.2,30.01,WSW,248,0.6,1.6,43,0.00,CLR,,0.00,WeatherDisplay:10.37,2013-01-18 01:39:00,
2013-01-17 17:40:00,42.1,21.2,30.01,WSW,248,0.6,1.6,43,0.00,CLR,,0.00,WeatherDisplay:10.37,2013-01-18 01:40:00,
2013-01-17 17:44:00,42.1,21.2,30.01,WSW,248,0.6,1.1,43,0.00,CLR,,0.00,WeatherDisplay:10.37,2013-01-18 01:44:00,
2013-01-17 17:45:00,42.1,21.2,30.01,WSW,248,0.0,2.0,43,0.00,CLR,CLR,0.00,WeatherDisplay:10.37,2013-01-18 01:45:00,
2013-01-17 17:49:00,42.1,21.2,30.01,WSW,248,0.6,1.1,43,0.00,CLR,,0.00,WeatherDisplay:10.37,2013-01-18 01:49:00,
2013-01-17 17:50:00,42.1,21.2,30.01,WSW,248,0.6,1.6,43,0.00,CLR,,0.00,WeatherDisplay:10.37,2013-01-18 01:50:00,
2013-01-17 17:55:00,42.1,21.2,30.01,WSW,248,0.6,1.1,43,0.00,CLR,,0.00,WeatherDisplay:10.37,2013-01-18 01:55:00,
2013-01-17 18:00:00,42.1,21.2,30.01,WSW,248,0.6,1.6,43,0.00,CLR,,0.00,WeatherDisplay:10.37,2013-01-18 02:00:00,
2013-01-17 18:01:00,42.1,21.2,30.01,WSW,248,0.6,1.6,43,0.00,CLR,,0.00,WeatherDisplay:10.37,2013-01-18 02:01:00,
2013-01-17 18:05:00,42.1,21.2,30.01,WSW,248,0.6,1.1,43,0.00,CLR,,0.00,WeatherDisplay:10.37,2013-01-18 02:05:00,
2013-01-17 18:06:00,42.1,21.2,30.01,WSW,248,0.6,1.6,43,0.00,CLR,,0.00,WeatherDisplay:10.37,2013-01-18 02:06:00,
2013-01-17 18:10:00,42.1,21.2,30.01,WSW,248,0.6,1.1,43,0.00,CLR,,0.00,WeatherDisplay:10.37,2013-01-18 02:10:00,
2013-01-17 18:11:00,42.1,21.2,30.01,WSW,248,0.6,1.6,43,0.00,CLR,,0.00,WeatherDisplay:10.37,2013-01-18 02:11:00,
2013-01-17 18:15:00,42.1,21.2,30.01,WSW,248,0.6,1.6,43,0.00,CLR,,0.00,WeatherDisplay:10.37,2013-01-18 02:15:00,
2013-01-17 18:16:00,42.1,21.2,30.01,WSW,248,0.6,1.1,43,0.00,CLR,,0.00,WeatherDisplay:10.37,2013-01-18 02:16:00,
2013-01-17 18:20:00,42.1,21.2,30.01,WSW,248,0.6,1.6,43,0.00,CLR,,0.00,WeatherDisplay:10.37,2013-01-18 02:20:00,
2013-01-17 18:21:00,42.1,21.2,30.01,WSW,248,0.6,1.1,43,0.00,CLR,,0.00,WeatherDisplay:10.37,2013-01-18 02:21:00,
2013-01-17 18:26:00,42.1,21.2,30.01,WSW,248,0.6,1.6,43,0.00,CLR,,0.00,WeatherDisplay:10.37,2013-01-18 02:26:00,
2013-01-17 18:31:00,42.1,21.2,30.01,WSW,248,0.6,1.1,43,0.00,CLR,,0.00,WeatherDisplay:10.37,2013-01-18 02:31:00,
2013-01-17 18:32:00,42.1,21.2,30.01,WSW,248,0.6,1.6,43,0.00,CLR,,0.00,WeatherDisplay:10.37,2013-01-18 02:32:00,
2013-01-17 18:36:00,42.1,21.2,30.01,WSW,248,0.6,1.6,43,0.00,CLR,,0.00,WeatherDisplay:10.37,2013-01-18 02:36:00,
2013-01-17 18:37:00,42.1,21.2,30.01,WSW,248,0.6,1.1,43,0.00,CLR,,0.00,WeatherDisplay:10.37,2013-01-18 02:37:00,
2013-01-17 18:41:00,42.1,21.2,30.01,WSW,248,0.6,1.1,43,0.00,CLR,,0.00,WeatherDisplay:10.37,2013-01-18 02:41:00,
2013-01-17 18:42:00,42.1,21.2,30.01,WSW,248,0.6,1.6,43,0.00,CLR,,0.00,WeatherDisplay:10.37,2013-01-18 02:42:00,
2013-01-17 18:46:00,42.1,21.2,30.01,WSW,248,0.6,1.6,43,0.00,CLR,,0.00,WeatherDisplay:10.37,2013-01-18 02:46:00,
2013-01-17 18:47:00,42.1,21.2,30.01,WSW,248,0.6,1.6,43,0.00,CLR,,0.00,WeatherDisplay:10.37,2013-01-18 02:47:00,
2013-01-17 18:51:00,42.1,21.2,30.01,WSW,248,0.6,1.1,43,0.00,CLR,,0.00,WeatherDisplay:10.37,2013-01-18 02:51:00,
2013-01-17 18:52:00,42.1,21.2,30.01,WSW,248,0.6,1.6,43,0.00,CLR,,0.00,WeatherDisplay:10.37,2013-01-18 02:52:00,
2013-01-17 18:56:00,42.1,21.2,30.01,WSW,248,0.6,1.1,43,0.00,CLR,,0.00,WeatherDisplay:10.37,2013-01-18 02:56:00,
2013-01-17 18:57:00,42.1,21.2,30.01,WSW,248,0.6,1.1,43,0.00,CLR,,0.00,WeatherDisplay:10.37,2013-01-18 02:57:00,
2013-01-17 19:01:00,42.1,21.2,30.01,WSW,248,0.6,1.6,43,0.00,CLR,,0.00,WeatherDisplay:10.37,2013-01-18 03:01:00,
2013-01-17 19:02:00,42.1,21.2,30.01,WSW,248,0.6,1.6,43,0.00,CLR,,0.00,WeatherDisplay:10.37,2013-01-18 03:02:00,
2013-01-17 19:06:00,42.1,21.2,30.01,WSW,248,0.6,1.1,43,0.00,CLR,,0.00,WeatherDisplay:10.37,2013-01-18 03:06:00,
2013-01-17 19:07:00,42.1,21.2,30.01,WSW,248,0.6,1.1,43,0.00,CLR,,0.00,WeatherDisplay:10.37,2013-01-18 03:07:00,
2013-01-17 19:12:00,42.1,21.2,30.01,WSW,248,0.6,1.6,43,0.00,CLR,,0.00,WeatherDisplay:10.37,2013-01-18 03:12:00,
2013-01-17 19:17:00,42.1,21.2,30.01,WSW,248,0.6,1.1,43,0.00,CLR,,0.00,WeatherDisplay:10.37,2013-01-18 03:17:00,
2013-01-17 19:18:00,42.1,21.2,30.01,WSW,248,0.6,1.1,43,0.00,CLR,,0.00,WeatherDisplay:10.37,2013-01-18 03:18:00,
2013-01-17 19:22:00,42.1,21.2,30.01,WSW,248,0.6,1.6,43,0.00,CLR,,0.00,WeatherDisplay:10.37,2013-01-18 03:22:00,
2013-01-17 19:23:00,42.1,21.2,30.01,WSW,248,0.6,1.6,43,0.00,CLR,,0.00,WeatherDisplay:10.37,2013-01-18 03:23:00,
2013-01-17 19:27:00,42.1,21.2,30.01,WSW,248,0.6,1.1,43,0.00,CLR,,0.00,WeatherDisplay:10.37,2013-01-18 03:27:00,
2013-01-17 19:28:00,42.1,21.2,30.01,WSW,248,0.6,1.6,43,0.00,CLR,,0.00,WeatherDisplay:10.37,2013-01-18 03:28:00,
2013-01-17 19:32:00,42.1,21.2,30.01,WSW,248,0.6,1.6,43,0.00,CLR,,0.00,WeatherDisplay:10.37,2013-01-18 03:32:00,
2013-01-17 19:33:00,42.1,21.2,30.01,WSW,248,0.6,1.1,43,0.00,CLR,,0.00,WeatherDisplay:10.37,2013-01-18 03:33:00,
2013-01-17 19:37:00,42.1,21.2,30.01,WSW,248,0.6,1.6,43,0.00,CLR,,0.00,WeatherDisplay:10.37,2013-01-18 03:37:00,
2013-01-17 19:38:00,42.1,21.2,30.01,WSW,248,0.6,1.1,43,0.00,CLR,,0.00,WeatherDisplay:10.37,2013-01-18 03:38:00,
2013-01-17 19:43:00,42.1,21.2,30.01,WSW,248,0.6,1.1,43,0.00,CLR,,0.00,WeatherDisplay:10.37,2013-01-18 03:43:00,
2013-01-17 19:48:00,42.1,21.2,30.01,WSW,248,0.6,1.1,43,0.00,CLR,,0.00,WeatherDisplay:10.37,2013-01-18 03:48:00,
2013-01-17 19:49:00,42.1,21.2,30.01,WSW,248,0.6,1.6,43,0.00,CLR,,0.00,WeatherDisplay:10.37,2013-01-18 03:49:00,
2013-01-17 19:53:00,42.1,21.2,30.01,WSW,248,0.6,1.6,43,0.00,CLR,,0.00,WeatherDisplay:10.37,2013-01-18 03:53:00,
2013-01-17 19:54:00,42.1,21.2,30.01,WSW,248,0.6,1.6,43,0.00,CLR,,0.00,WeatherDisplay:10.37,2013-01-18 03:54:00,
2013-01-17 19:58:00,42.1,21.2,30.01,WSW,248,0.6,1.1,43,0.00,CLR,,0.00,WeatherDisplay:10.37,2013-01-18 03:58:00,
2013-01-17 19:59:00,42.1,21.2,30.01,WSW,248,0.6,1.1,43,0.00,CLR,,0.00,WeatherDisplay:10.37,2013-01-18 03:59:00,
2013-01-17 20:03:00,42.1,21.2,30.01,WSW,248,0.6,1.6,43,0.00,CLR,,0.00,WeatherDisplay:10.37,2013-01-18 04:03:00,
2013-01-17 20:04:00,42.1,21.2,30.01,WSW,248,0.6,1.6,43,0.00,CLR,,0.00,WeatherDisplay:10.37,2013-01-18 04:04:00,
2013-01-17 20:08:00,42.1,21.2,30.01,WSW,248,0.6,1.6,43,0.00,CLR,,0.00,WeatherDisplay:10.37,2013-01-18 04:08:00,
2013-01-17 20:09:00,42.1,21.2,30.01,WSW,248,0.6,1.1,43,0.00,CLR,,0.00,WeatherDisplay:10.37,2013-01-18 04:09:00,
2013-01-17 20:13:00,42.1,21.2,30.01,WSW,248,0.6,1.1,43,0.00,CLR,,0.00,WeatherDisplay:10.37,2013-01-18 04:13:00,
2013-01-17 20:14:00,42.1,21.2,30.01,WSW,248,0.6,1.1,43,0.00,CLR,,0.00,WeatherDisplay:10.37,2013-01-18 04:14:00,
2013-01-17 20:18:00,42.1,21.2,30.01,WSW,248,0.6,1.6,43,0.00,CLR,,0.00,WeatherDisplay:10.37,2013-01-18 04:18:00,
2013-01-17 20:19:00,42.1,21.2,30.01,WSW,248,0.6,1.1,43,0.00,CLR,,0.00,WeatherDisplay:10.37,2013-01-18 04:19:00,
2013-01-17 20:23:00,42.1,21.2,30.01,WSW,248,0.6,1.1,43,0.00,CLR,,0.00,WeatherDisplay:10.37,2013-01-18 04:23:00,
2013-01-17 20:24:00,42.1,21.2,30.01,WSW,248,0.6,1.1,43,0.00,CLR,,0.00,WeatherDisplay:10.37,2013-01-18 04:24:00,
2013-01-17 20:25:00,42.1,21.2,30.01,WSW,248,0.6,1.1,43,0.00,CLR,,0.00,WeatherDisplay:10.37,2013-01-18 04:25:00,
2013-01-17 20:28:00,42.1,21.2,30.01,WSW,248,0.6,1.6,43,0.00,CLR,,0.00,WeatherDisplay:10.37,2013-01-18 04:28:00,
2013-01-17 20:29:00,42.1,21.2,30.01,WSW,248,0.6,1.1,43,0.00,CLR,,0.00,WeatherDisplay:10.37,2013-01-18 04:29:00,
2013-01-17 20:30:00,42.1,21.2,30.01,WSW,248,0.6,1.6,43,0.00,CLR,,0.00,WeatherDisplay:10.37,2013-01-18 04:30:00,
2013-01-17 20:34:00,42.1,21.2,30.01,WSW,248,0.6,1.6,43,0.00,CLR,,0.00,WeatherDisplay:10.37,2013-01-18 04:34:00,
2013-01-17 20:35:00,42.1,21.2,30.01,WSW,248,0.6,1.1,43,0.00,CLR,,0.00,WeatherDisplay:10.37,2013-01-18 04:35:00,
2013-01-17 20:39:00,42.1,21.2,30.01,WSW,248,0.6,1.6,43,0.00,CLR,,0.00,WeatherDisplay:10.37,2013-01-18 04:39:00,
2013-01-17 20:40:00,42.1,21.2,30.01,WSW,248,0.6,1.1,43,0.00,CLR,,0.00,WeatherDisplay:10.37,2013-01-18 04:40:00,
2013-01-17 20:44:00,42.1,21.2,30.01,WSW,248,0.6,1.1,43,0.00,CLR,,0.00,WeatherDisplay:10.37,2013-01-18 04:44:00,
2013-01-17 20:45:00,42.1,21.2,30.01,WSW,248,0.6,1.1,43,0.00,CLR,,0.00,WeatherDisplay:10.37,2013-01-18 04:45:00,
2013-01-17 20:49:00,42.1,21.2,30.01,WSW,248,0.6,1.6,43,0.00,CLR,,0.00,WeatherDisplay:10.37,2013-01-18 04:49:00,
2013-01-17 20:50:00,42.1,21.2,30.01,WSW,248,0.6,1.1,43,0.00,CLR,,0.00,WeatherDisplay:10.37,2013-01-18 04:50:00,
2013-01-17 20:54:00,42.1,21.2,30.01,WSW,248,0.6,1.1,43,0.00,CLR,,0.00,WeatherDisplay:10.37,2013-01-18 04:54:00,
2013-01-17 20:55:00,42.1,21.2,30.01,WSW,248,0.6,1.6,43,0.00,CLR,,0.00,WeatherDisplay:10.37,2013-01-18 04:55:00,
2013-01-17 21:00:00,42.1,21.2,30.01,WSW,248,0.6,1.1,43,0.00,CLR,,0.00,WeatherDisplay:10.37,2013-01-18 05:00:00,
2013-01-17 21:01:00,42.1,21.2,30.01,WSW,248,0.6,1.1,43,0.00,CLR,,0.00,WeatherDisplay:10.37,2013-01-18 05:01:00,
2013-01-17 21:03:00,42.1,21.2,30.01,WSW,248,0.6,1.6,43,0.00,CLR,,0.00,WeatherDisplay:10.37,2013-01-18 05:03:00,
2013-01-17 21:05:00,42.1,21.2,30.01,WSW,248,0.6,1.1,43,0.00,CLR,,0.00,WeatherDisplay:10.37,2013-01-18 05:05:00,
2013-01-17 21:06:00,42.1,21.2,30.01,WSW,248,0.6,1.1,43,0.00,CLR,,0.00,WeatherDisplay:10.37,2013-01-18 05:06:00,
2013-01-17 21:08:00,42.1,21.2,30.01,WSW,248,0.6,1.1,43,0.00,CLR,,0.00,WeatherDisplay:10.37,2013-01-18 05:08:00,
2013-01-17 21:10:00,42.1,21.2,30.01,WSW,248,0.6,1.1,43,0.00,CLR,,0.00,WeatherDisplay:10.37,2013-01-18 05:10:00,
2013-01-17 21:12:00,42.1,21.2,30.01,WSW,248,0.6,1.1,43,0.00,CLR,,0.00,WeatherDisplay:10.37,2013-01-18 05:12:00,
2013-01-17 21:13:00,42.1,21.2,30.01,WSW,248,0.6,1.6,43,0.00,CLR,,0.00,WeatherDisplay:10.37,2013-01-18 05:13:00,
2013-01-17 21:16:00,42.1,21.2,30.01,WSW,248,0.6,1.6,43,0.00,CLR,,0.00,WeatherDisplay:10.37,2013-01-18 05:16:00,
2013-01-17 21:17:00,42.1,21.2,30.01,WSW,248,0.6,1.1,43,0.00,CLR,,0.00,WeatherDisplay:10.37,2013-01-18 05:17:00,
2013-01-17 21:18:00,42.1,21.2,30.01,WSW,248,0.6,1.6,43,0.00,CLR,,0.00,WeatherDisplay:10.37,2013-01-18 05:18:00,
2013-01-17 21:19:00,42.1,21.2,30.01,WSW,248,0.6,1.1,43,0.00,CLR,,0.00,WeatherDisplay:10.37,2013-01-18 05:19:00,
2013-01-17 21:21:00,42.1,21.2,30.01,WSW,248,0.6,1.1,43,0.00,CLR,,0.00,WeatherDisplay:10.37,2013-01-18 05:21:00,
2013-01-17 21:22:00,42.1,21.2,30.01,WSW,248,0.6,1.6,43,0.00,CLR,,0.00,WeatherDisplay:10.37,2013-01-18 05:22:00,
2013-01-17 21:23:00,42.1,21.2,30.01,WSW,248,0.6,1.6,43,0.00,CLR,,0.00,WeatherDisplay:10.37,2013-01-18 05:23:00,
2013-01-17 21:24:00,42.1,21.2,30.01,WSW,248,0.6,1.1,43,0.00,CLR,,0.00,WeatherDisplay:10.37,2013-01-18 05:24:00,
2013-01-17 21:26:00,42.1,21.2,30.01,WSW,248,0.6,1.6,43,0.00,CLR,,0.00,WeatherDisplay:10.37,2013-01-18 05:26:00,
2013-01-17 21:27:00,42.1,21.2,30.01,WSW,248,0.6,1.6,43,0.00,CLR,,0.00,WeatherDisplay:10.37,2013-01-18 05:27:00,
2013-01-17 21:29:00,42.1,21.2,30.01,WSW,248,0.6,1.1,43,0.00,CLR,,0.00,WeatherDisplay:10.37,2013-01-18 05:29:00,
2013-01-17 21:31:00,42.1,21.2,30.01,WSW,248,0.6,1.1,43,0.00,CLR,,0.00,WeatherDisplay:10.37,2013-01-18 05:31:00,
2013-01-17 21:32:00,42.1,21.2,30.01,WSW,248,0.6,1.1,43,0.00,CLR,,0.00,WeatherDisplay:10.37,2013-01-18 05:32:00,
2013-01-17 21:34:00,42.1,21.2,30.01,WSW,248,0.6,1.1,43,0.00,CLR,,0.00,WeatherDisplay:10.37,2013-01-18 05:34:00,
2013-01-17 21:35:00,42.1,21.2,30.01,WSW,248,0.0,2.0,43,0.00,CLR,CLR,0.00,WeatherDisplay:10.37,2013-01-18 05:35:00,
2013-01-17 21:36:00,42.1,21.2,30.01,WSW,248,0.6,1.6,43,0.00,CLR,,0.00,WeatherDisplay:10.37,2013-01-18 05:36:00,
2013-01-17 21:38:00,42.1,21.2,30.01,WSW,248,0.6,1.6,43,0.00,CLR,,0.00,WeatherDisplay:10.37,2013-01-18 05:38:00,
2013-01-17 21:39:00,42.1,21.2,30.01,WSW,248,0.6,1.6,43,0.00,CLR,,0.00,WeatherDisplay:10.37,2013-01-18 05:39:00,
2013-01-17 21:40:00,42.1,21.2,30.01,WSW,248,0.6,1.6,43,0.00,CLR,,0.00,WeatherDisplay:10.37,2013-01-18 05:40:00,
2013-01-17 21:41:00,42.1,21.2,30.01,WSW,248,0.6,1.1,43,0.00,CLR,,0.00,WeatherDisplay:10.37,2013-01-18 05:41:00,
2013-01-17 21:43:00,42.1,21.2,30.01,WSW,248,0.6,1.1,43,0.00,CLR,,0.00,WeatherDisplay:10.37,2013-01-18 05:43:00,
2013-01-17 21:44:00,42.1,21.2,30.01,WSW,248,0.6,1.1,43,0.00,CLR,,0.00,WeatherDisplay:10.37,2013-01-18 05:44:00,
2013-01-17 21:45:00,42.1,21.2,30.01,WSW,248,0.6,1.1,43,0.00,CLR,,0.00,WeatherDisplay:10.37,2013-01-18 05:45:00,
2013-01-17 21:47:00,42.1,21.2,30.01,WSW,248,0.6,1.1,43,0.00,CLR,,0.00,WeatherDisplay:10.37,2013-01-18 05:47:00,
2013-01-17 21:48:00,42.1,21.2,30.01,WSW,248,0.6,1.6,43,0.00,CLR,,0.00,WeatherDisplay:10.37,2013-01-18 05:48:00,
2013-01-17 21:49:00,42.1,21.2,30.01,WSW,248,0.6,1.1,43,0.00,CLR,,0.00,WeatherDisplay:10.37,2013-01-18 05:49:00,
2013-01-17 21:50:00,42.1,21.2,30.01,WSW,248,0.6,1.6,43,0.00,CLR,,0.00,WeatherDisplay:10.37,2013-01-18 05:50:00,
2013-01-17 21:52:00,42.1,21.2,30.01,WSW,248,0.6,1.1,43,0.00,CLR,,0.00,WeatherDisplay:10.37,2013-01-18 05:52:00,
2013-01-17 21:53:00,42.1,21.2,30.01,WSW,248,0.6,1.1,43,0.00,CLR,,0.00,WeatherDisplay:10.37,2013-01-18 05:53:00,
2013-01-17 21:54:00,42.1,21.2,30.01,WSW,248,0.6,1.1,43,0.00,CLR,,0.00,WeatherDisplay:10.37,2013-01-18 05:54:00,
2013-01-17 21:55:00,42.1,21.2,30.01,WSW,248,0.6,1.1,43,0.00,CLR,,0.00,WeatherDisplay:10.37,2013-01-18 05:55:00,
2013-01-17 21:57:00,42.1,21.2,30.01,WSW,248,0.6,1.6,43,0.00,CLR,,0.00,WeatherDisplay:10.37,2013-01-18 05:57:00,
2013-01-17 21:58:00,42.1,21.2,30.01,WSW,248,0.6,1.6,43,0.00,CLR,,0.00,WeatherDisplay:10.37,2013-01-18 05:58:00,
2013-01-17 21:59:00,42.1,21.2,30.01,WSW,248,0.6,1.6,43,0.00,CLR,,0.00,WeatherDisplay:10.37,2013-01-18 05:59:00,
2013-01-17 22:00:00,42.1,21.2,30.01,WSW,248,0.6,1.1,43,0.00,CLR,,0.00,WeatherDisplay:10.37,2013-01-18 06:00:00,
2013-01-17 22:02:00,42.1,21.2,30.01,WSW,248,0.6,1.1,43,0.00,CLR,,0.00,WeatherDisplay:10.37,2013-01-18 06:02:00,
2013-01-17 22:03:00,42.1,21.2,30.01,WSW,248,0.6,1.6,43,0.00,CLR,,0.00,WeatherDisplay:10.37,2013-01-18 06:03:00,
2013-01-17 22:04:00,42.1,21.2,30.01,WSW,248,0.6,1.6,43,0.00,CLR,,0.00,WeatherDisplay:10.37,2013-01-18 06:04:00,
2013-01-17 22:05:00,42.1,21.2,30.01,WSW,248,0.6,1.6,43,0.00,CLR,,0.00,WeatherDisplay:10.37,2013-01-18 06:05:00,
2013-01-17 22:07:00,42.1,21.2,30.01,WSW,248,0.6,1.1,43,0.00,CLR,,0.00,WeatherDisplay:10.37,2013-01-18 06:07:00,
2013-01-17 22:09:00,42.1,21.2,30.01,WSW,248,0.6,1.6,43,0.00,CLR,,0.00,WeatherDisplay:10.37,2013-01-18 06:09:00,
2013-01-17 22:10:00,42.1,21.2,30.01,WSW,248,0.6,1.6,43,0.00,CLR,,0.00,WeatherDisplay:10.37,2013-01-18 06:10:00,
2013-01-17 22:12:00,42.1,21.2,30.01,WSW,248,0.6,1.1,43,0.00,CLR,,0.00,WeatherDisplay:10.37,2013-01-18 06:12:00,
2013-01-17 22:14:00,42.1,21.2,30.01,WSW,248,0.6,1.1,43,0.00,CLR,,0.00,WeatherDisplay:10.37,2013-01-18 06:14:00,
2013-01-17 22:15:00,42.1,21.2,30.01,WSW,248,0.6,1.6,43,0.00,CLR,,0.00,WeatherDisplay:10.37,2013-01-18 06:15:00,
2013-01-17 22:17:00,42.1,21.2,30.01,WSW,248,0.6,1.1,43,0.00,CLR,,0.00,WeatherDisplay:10.37,2013-01-18 06:17:00,
2013-01-17 22:20:00,42.1,21.2,30.01,WSW,248,0.6,1.6,43,0.00,CLR,,0.00,WeatherDisplay:10.37,2013-01-18 06:20:00,
2013-01-17 22:21:00,42.1,21.2,30.01,WSW,248,0.6,1.1,43,0.00,CLR,,0.00,WeatherDisplay:10.37,2013-01-18 06:21:00,
2013-01-17 22:22:00,42.1,21.2,30.01,WSW,248,0.6,1.1,43,0.00,CLR,,0.00,WeatherDisplay:10.37,2013-01-18 06:22:00,
2013-01-17 22:25:00,42.1,21.2,30.01,WSW,248,0.6,1.1,43,0.00,CLR,,0.00,WeatherDisplay:10.37,2013-01-18 06:25:00,
2013-01-17 22:26:00,42.1,21.2,30.01,WSW,248,0.6,1.1,43,0.00,CLR,,0.00,WeatherDisplay:10.37,2013-01-18 06:26:00,
2013-01-17 22:27:00,42.1,21.2,30.01,WSW,248,0.6,1.1,43,0.00,CLR,,0.00,WeatherDisplay:10.37,2013-01-18 06:27:00,
2013-01-17 22:30:00,42.1,21.2,30.01,WSW,248,0.6,1.1,43,0.00,CLR,,0.00,WeatherDisplay:10.37,2013-01-18 06:30:00,
2013-01-17 22:31:00,42.1,21.2,30.01,WSW,248,0.6,1.1,43,0.00,CLR,,0.00,WeatherDisplay:10.37,2013-01-18 06:31:00,
2013-01-17 22:33:00,42.1,21.2,30.01,WSW,248,0.6,1.6,43,0.00,CLR,,0.00,WeatherDisplay:10.37,2013-01-18 06:33:00,
2013-01-17 22:35:00,42.1,21.2,30.01,WSW,248,0.6,1.6,43,0.00,CLR,,0.00,WeatherDisplay:10.37,2013-01-18 06:35:00,
2013-01-17 22:36:00,42.1,21.2,30.01,WSW,248,0.6,1.1,43,0.00,CLR,,0.00,WeatherDisplay:10.37,2013-01-18 06:36:00,
2013-01-17 22:38:00,42.1,21.2,30.01,WSW,248,0.6,1.1,43,0.00,CLR,,0.00,WeatherDisplay:10.37,2013-01-18 06:38:00,
2013-01-17 22:40:00,42.1,21.2,30.01,WSW,248,0.6,1.6,43,0.00,CLR,,0.00,WeatherDisplay:10.37,2013-01-18 06:40:00,
2013-01-17 22:41:00,42.1,21.2,30.01,WSW,248,0.6,1.6,43,0.00,CLR,,0.00,WeatherDisplay:10.37,2013-01-18 06:41:00,
2013-01-17 22:43:00,42.1,21.2,30.01,WSW,248,0.6,1.6,43,0.00,CLR,,0.00,WeatherDisplay:10.37,2013-01-18 06:43:00,
2013-01-17 22:45:00,42.1,21.2,30.01,WSW,248,0.6,1.1,43,0.00,CLR,,0.00,WeatherDisplay:10.37,2013-01-18 06:45:00,
2013-01-17 22:46:00,42.1,21.2,30.01,WSW,248,0.6,1.1,43,0.00,CLR,,0.00,WeatherDisplay:10.37,2013-01-18 06:46:00,
2013-01-17 22:48:00,42.1,21.2,30.01,WSW,248,0.6,1.1,43,0.00,CLR,,0.00,WeatherDisplay:10.37,2013-01-18 06:48:00,
2013-01-17 22:51:00,42.1,21.2,30.01,WSW,248,0.6,1.1,43,0.00,CLR,,0.00,WeatherDisplay:10.37,2013-01-18 06:51:00,
2013-01-17 22:52:00,42.1,21.2,30.01,WSW,248,0.6,1.1,43,0.00,CLR,,0.00,WeatherDisplay:10.37,2013-01-18 06:52:00,
2013-01-17 22:53:00,42.1,21.2,30.01,WSW,248,0.6,1.1,43,0.00,CLR,,0.00,WeatherDisplay:10.37,2013-01-18 06:53:00,
2013-01-17 22:56:00,42.1,21.2,30.01,WSW,248,0.6,1.1,43,0.00,CLR,,0.00,WeatherDisplay:10.37,2013-01-18 06:56:00,
2013-01-17 22:57:00,42.1,21.2,30.01,WSW,248,0.6,1.1,43,0.00,CLR,,0.00,WeatherDisplay:10.37,2013-01-18 06:57:00,
2013-01-17 22:58:00,42.1,21.2,30.01,WSW,248,0.6,1.1,43,0.00,CLR,,0.00,WeatherDisplay:10.37,2013-01-18 06:58:00,
2013-01-17 23:01:00,42.1,21.2,30.01,WSW,248,0.6,1.1,43,0.00,CLR,,0.00,WeatherDisplay:10.37,2013-01-18 07:01:00,
2013-01-17 23:02:00,42.1,21.2,30.01,WSW,248,0.6,1.1,43,0.00,CLR,,0.00,WeatherDisplay:10.37,2013-01-18 07:02:00,
2013-01-17 23:03:00,42.1,21.2,30.01,WSW,248,0.6,1.1,43,0.00,CLR,,0.00,WeatherDisplay:10.37,2013-01-18 07:03:00,
2013-01-17 23:06:00,42.1,21.2,30.01,WSW,248,0.6,1.6,43,0.00,CLR,,0.00,WeatherDisplay:10.37,2013-01-18 07:06:00,
2013-01-17 23:07:00,42.1,21.2,30.01,WSW,248,0.6,1.1,43,0.00,CLR,,0.00,WeatherDisplay:10.37,2013-01-18 07:07:00,
2013-01-17 23:09:00,42.1,21.2,30.01,WSW,248,0.6,1.1,43,0.00,CLR,,0.00,WeatherDisplay:10.37,2013-01-18 07:09:00,
2013-01-17 23:11:00,42.1,21.2,30.01,WSW,248,0.6,1.6,43,0.00,CLR,,0.00,WeatherDisplay:10.37,2013-01-18 07:11:00,
2013-01-17 23:12:00,42.1,21.2,30.01,WSW,248,0.6,1.1,43,0.00,CLR,,0.00,WeatherDisplay:10.37,2013-01-18 07:12:00,
2013-01-17 23:14:00,42.1,21.2,30.01,WSW,248,0.6,1.1,43,0.00,CLR,,0.00,WeatherDisplay:10.37,2013-01-18 07:14:00,
2013-01-17 23:17:00,42.1,21.2,30.01,WSW,248,0.6,1.1,43,0.00,CLR,,0.00,WeatherDisplay:10.37,2013-01-18 07:17:00,
2013-01-17 23:18:00,42.1,21.2,30.01,WSW,248,0.6,1.6,43,0.00,CLR,,0.00,WeatherDisplay:10.37,2013-01-18 07:18:00,
2013-01-17 23:19:00,42.1,21.2,30.01,WSW,248,0.6,1.1,43,0.00,CLR,,0.00,WeatherDisplay:10.37,2013-01-18 07:19:00,
2013-01-17 23:22:00,42.1,21.2,30.01,WSW,248,0.6,1.1,43,0.00,CLR,,0.00,WeatherDisplay:10.37,2013-01-18 07:22:00,
2013-01-17 23:23:00,42.1,21.2,30.01,WSW,248,0.6,1.1,43,0.00,CLR,,0.00,WeatherDisplay:10.37,2013-01-18 07:23:00,
2013-01-17 23:24:00,42.1,21.2,30.01,WSW,248,0.6,1.1,43,0.00,CLR,,0.00,WeatherDisplay:10.37,2013-01-18 07:24:00,
2013-01-17 23:27:00,42.1,21.2,30.01,WSW,248,0.6,1.6,43,0.00,CLR,,0.00,WeatherDisplay:10.37,2013-01-18 07:27:00,
2013-01-17 23:28:00,42.1,21.2,30.01,WSW,248,0.6,1.6,43,0.00,CLR,,0.00,WeatherDisplay:10.37,2013-01-18 07:28:00,
2013-01-17 23:29:00,42.1,21.2,30.01,WSW,248,0.6,1.1,43,0.00,CLR,,0.00,WeatherDisplay:10.37,2013-01-18 07:29:00,
2013-01-17 23:32:00,42.1,21.2,30.01,WSW,248,0.6,1.1,43,0.00,CLR,,0.00,WeatherDisplay:10.37,2013-01-18 07:32:00,
2013-01-17 23:33:00,42.1,21.2,30.01,WSW,248,0.6,1.1,43,0.00,CLR,,0.00,WeatherDisplay:10.37,2013-01-18 07:33:00,
2013-01-17 23:34:00,42.1,21.2,30.01,WSW,248,0.6,1.1,43,0.00,CLR,,0.00,WeatherDisplay:10.37,2013-01-18 07:34:00,
2013-01-17 23:37:00,42.1,21.2,30.01,WSW,248,0.6,1.6,43,0.00,CLR,,0.00,WeatherDisplay:10.37,2013-01-18 07:37:00,
2013-01-17 23:38:00,42.1,21.2,30.01,WSW,248,0.6,1.6,43,0.00,CLR,,0.00,WeatherDisplay:10.37,2013-01-18 07:38:00,
2013-01-17 23:39:00,42.1,21.2,30.01,WSW,248,0.6,1.1,43,0.00,CLR,,0.00,WeatherDisplay:10.37,2013-01-18 07:39:00,
2013-01-17 23:42:00,42.1,21.2,30.01,WSW,248,0.6,1.6,43,0.00,CLR,,0.00,WeatherDisplay:10.37,2013-01-18 07:42:00,
2013-01-17 23:43:00,42.1,21.2,30.01,WSW,248,0.6,1.6,43,0.00,CLR,,0.00,WeatherDisplay:10.37,2013-01-18 07:43:00,
2013-01-17 23:44:00,42.1,21.2,30.01,WSW,248,0.6,1.1,43,0.00,CLR,,0.00,WeatherDisplay:10.37,2013-01-18 07:44:00,
2013-01-17 23:47:00,42.1,21.2,30.01,WSW,248,0.6,1.6,43,0.00,CLR,,0.00,WeatherDisplay:10.37,2013-01-18 07:47:00,
2013-01-17 23:48:00,42.1,21.2,30.01,WSW,248,0.6,1.1,43,0.00,CLR,,0.00,WeatherDisplay:10.37,2013-01-18 07:48:00,
2013-01-17 23:49:00,42.1,21.2,30.01,WSW,248,0.6,1.1,43,0.00,CLR,,0.00,WeatherDisplay:10.37,2013-01-18 07:49:00,
2013-01-17 23:53:00,42.1,21.2,30.01,WSW,248,0.6,1.1,43,0.00,CLR,,0.00,WeatherDisplay:10.37,2013-01-18 07:53:00,
2013-01-17 23:54:00,42.1,21.2,30.01,WSW,248,0.6,1.6,43,0.00,CLR,,0.00,WeatherDisplay:10.37,2013-01-18 07:54:00,
2013-01-17 23:55:00,42.1,21.2,30.01,WSW,248,0.6,1.6,43,0.00,CLR,,0.00,WeatherDisplay:10.37,2013-01-18 07:55:00,
2013-01-17 23:58:00,42.1,21.2,30.01,WSW,248,0.6,1.6,43,0.00,CLR,,0.00,WeatherDisplay:10.37,2013-01-18 07:58:00,
2013-01-17 23:59:00,42.1,21.2,30.01,WSW,248,0.6,1.1,43,0.00,CLR,,0.00,WeatherDisplay:10.37,2013-01-18 07:59:00,